TimeEDT,TemperatureF,Dew PointF,Humidity,Sea Level PressureIn,VisibilityMPH,Wind Direction,Wind SpeedMPH,Gust SpeedMPH,PrecipitationIn,Events,Conditions,WindDirDegrees,DateUTC
12:15 AM,59.0,59.0,100,29.73,10.0,SW,4.6,-,N/A,,Scattered Clouds,230,2013-11-02 04:15:00
12:35 AM,57.2,57.2,100,29.73,10.0,SW,3.5,-,N/A,,Scattered Clouds,220,2013-11-02 04:35:00
12:55 AM,57.2,57.2,100,29.73,10.0,WSW,3.5,-,N/A,,Clear,240,2013-11-02 04:55:00
1:15 AM,55.4,55.4,100,29.73,10.0,SW,3.5,-,N/A,,Scattered Clouds,220,2013-11-02 05:15:00
1:35 AM,57.2,57.2,100,29.72,10.0,WSW,3.5,-,N/A,,Overcast,240,2013-11-02 05:35:00
1:55 AM,59.0,59.0,100,29.72,10.0,WSW,6.9,-,N/A,,Overcast,240,2013-11-02 05:55:00
2:15 AM,59.0,59.0,100,29.73,10.0,WSW,3.5,-,N/A,,Overcast,250,2013-11-02 06:15:00
2:35 AM,59.0,59.0,100,29.73,10.0,WSW,3.5,-,N/A,,Overcast,250,2013-11-02 06:35:00
2:55 AM,59.0,59.0,100,29.73,10.0,Calm,Calm,-,N/A,,Overcast,0,2013-11-02 06:55:00
3:15 AM,59.0,59.0,100,29.73,10.0,Calm,Calm,-,N/A,,Overcast,0,2013-11-02 07:15:00
3:35 AM,57.2,57.2,100,29.74,7.0,Calm,Calm,-,N/A,,Overcast,0,2013-11-02 07:35:00
3:55 AM,55.4,55.4,100,29.74,5.0,Calm,Calm,-,N/A,,Overcast,0,2013-11-02 07:55:00
4:15 AM,55.4,55.4,100,29.74,5.0,Calm,Calm,-,N/A,,Overcast,0,2013-11-02 08:15:00
4:35 AM,55.4,55.4,100,29.74,4.0,Calm,Calm,-,N/A,,Overcast,0,2013-11-02 08:35:00
4:55 AM,55.4,55.4,100,29.74,5.0,NW,5.8,-,N/A,,Overcast,310,2013-11-02 08:55:00
5:15 AM,55.4,55.4,100,29.75,4.0,Calm,Calm,-,N/A,,Overcast,0,2013-11-02 09:15:00
5:35 AM,55.4,55.4,100,29.75,4.0,Calm,Calm,-,N/A,,Mostly Cloudy,0,2013-11-02 09:35:00
5:55 AM,53.6,53.6,100,29.75,2.0,Calm,Calm,-,N/A,,Overcast,0,2013-11-02 09:55:00
6:15 AM,53.6,53.6,100,29.75,2.0,Calm,Calm,-,N/A,,Overcast,0,2013-11-02 10:15:00
6:35 AM,53.6,53.6,100,29.76,4.0,Calm,Calm,-,N/A,,Scattered Clouds,0,2013-11-02 10:35:00
6:55 AM,53.6,53.6,100,29.76,2.0,Calm,Calm,-,N/A,,Clear,0,2013-11-02 10:55:00
7:15 AM,53.6,53.6,100,29.77,5.0,Calm,Calm,-,N/A,,Clear,0,2013-11-02 11:15:00
7:35 AM,53.6,53.6,100,29.77,5.0,Calm,Calm,-,N/A,,Clear,0,2013-11-02 11:35:00
7:55 AM,51.8,51.8,100,29.78,7.0,Calm,Calm,-,N/A,,Clear,0,2013-11-02 11:55:00
8:15 AM,51.8,51.8,100,29.79,10.0,Calm,Calm,-,N/A,,Clear,0,2013-11-02 12:15:00
8:35 AM,51.8,51.8,100,29.80,10.0,Calm,Calm,-,N/A,,Clear,0,2013-11-02 12:35:00
8:55 AM,50.0,50.0,100,29.80,5.0,Calm,Calm,-,N/A,,Clear,0,2013-11-02 12:55:00
9:15 AM,50.0,50.0,100,29.81,4.0,Calm,Calm,-,N/A,,Clear,0,2013-11-02 13:15:00
9:35 AM,53.6,51.8,94,29.82,10.0,Calm,Calm,-,N/A,,Clear,0,2013-11-02 13:35:00
9:55 AM,55.4,51.8,88,29.82,10.0,WNW,3.5,-,N/A,,Clear,290,2013-11-02 13:55:00
10:15 AM,59.0,50.0,72,29.82,10.0,WNW,3.5,-,N/A,,Clear,300,2013-11-02 14:15:00
10:35 AM,59.0,48.2,67,29.81,10.0,Calm,Calm,-,N/A,,Clear,0,2013-11-02 14:35:00
10:55 AM,60.8,50.0,68,29.81,10.0,WNW,3.5,-,N/A,,Clear,300,2013-11-02 14:55:00
11:15 AM,62.6,48.2,59,29.81,10.0,West,3.5,-,N/A,,Clear,280,2013-11-02 15:15:00
11:35 AM,62.6,46.4,55,29.81,10.0,NW,6.9,-,N/A,,Clear,310,2013-11-02 15:35:00
11:55 AM,64.4,44.6,49,29.80,10.0,NW,4.6,-,N/A,,Clear,310,2013-11-02 15:55:00
1:15 PM,68.0,44.6,43,29.78,10.0,West,8.1,-,N/A,,Clear,270,2013-11-02 17:15:00
1:35 PM,68.0,44.6,43,29.77,10.0,Calm,Calm,-,N/A,,Scattered Clouds,0,2013-11-02 17:35:00
1:55 PM,68.0,44.6,43,29.77,10.0,NNW,6.9,-,N/A,,Scattered Clouds,340,2013-11-02 17:55:00
2:15 PM,68.0,42.8,40,29.77,10.0,NNW,5.8,-,N/A,,Scattered Clouds,340,2013-11-02 18:15:00
2:35 PM,66.2,42.8,43,29.76,10.0,Calm,Calm,-,N/A,,Mostly Cloudy,0,2013-11-02 18:35:00
2:55 PM,68.0,41.0,37,29.77,10.0,WNW,5.8,-,N/A,,Scattered Clouds,290,2013-11-02 18:55:00
3:15 PM,68.0,41.0,37,29.77,10.0,West,6.9,-,N/A,,Mostly Cloudy,270,2013-11-02 19:15:00
3:35 PM,68.0,37.4,33,29.77,10.0,West,9.2,-,N/A,,Mostly Cloudy,260,2013-11-02 19:35:00
3:55 PM,68.0,37.4,33,29.76,10.0,West,6.9,17.3,N/A,,Overcast,280,2013-11-02 19:55:00
4:15 PM,68.0,37.4,33,29.77,10.0,West,6.9,-,N/A,,Scattered Clouds,280,2013-11-02 20:15:00
4:35 PM,68.0,35.6,30,29.77,10.0,West,5.8,-,N/A,,Scattered Clouds,270,2013-11-02 20:35:00
4:55 PM,68.0,35.6,30,29.77,10.0,SW,6.9,-,N/A,,Scattered Clouds,230,2013-11-02 20:55:00
5:15 PM,64.4,35.6,34,29.77,10.0,WNW,3.5,-,N/A,,Scattered Clouds,300,2013-11-02 21:15:00
5:35 PM,62.6,37.4,39,29.78,10.0,Calm,Calm,-,N/A,,Mostly Cloudy,0,2013-11-02 21:35:00
5:55 PM,62.6,37.4,39,29.79,10.0,SW,9.2,-,N/A,Rain,Light Rain,230,2013-11-02 21:55:00
6:15 PM,60.8,37.4,42,29.80,10.0,West,3.5,-,N/A,Rain,Light Rain,260,2013-11-02 22:15:00
6:35 PM,60.8,39.2,45,29.81,10.0,SW,5.8,-,N/A,,Overcast,220,2013-11-02 22:35:00
6:55 PM,59.0,41.0,51,29.82,10.0,SW,8.1,-,N/A,,Mostly Cloudy,230,2013-11-02 22:55:00
7:15 PM,59.0,41.0,51,29.84,10.0,WSW,3.5,-,N/A,,Scattered Clouds,240,2013-11-02 23:15:00
7:35 PM,59.0,41.0,51,29.84,10.0,Calm,Calm,-,N/A,,Clear,0,2013-11-02 23:35:00
7:55 PM,59.0,41.0,51,29.85,10.0,Calm,Calm,-,N/A,,Clear,0,2013-11-02 23:55:00
8:15 PM,57.2,41.0,55,29.86,10.0,Calm,Calm,-,N/A,,Scattered Clouds,0,2013-11-03 00:15:00
8:35 PM,57.2,41.0,55,29.87,10.0,Calm,Calm,-,N/A,,Scattered Clouds,0,2013-11-03 00:35:00
8:55 PM,55.4,42.8,63,29.89,10.0,Calm,Calm,-,N/A,,Clear,0,2013-11-03 00:55:00
9:15 PM,55.4,39.2,54,29.90,10.0,Calm,Calm,-,N/A,,Clear,0,2013-11-03 01:15:00
9:35 PM,55.4,37.4,51,29.91,10.0,NNW,4.6,-,N/A,,Clear,330,2013-11-03 01:35:00
9:55 PM,55.4,35.6,47,29.92,10.0,NNW,3.5,-,N/A,,Clear,330,2013-11-03 01:55:00
10:15 PM,55.4,33.8,44,29.92,10.0,NNW,3.5,-,N/A,,Clear,340,2013-11-03 02:15:00
10:35 PM,55.4,33.8,44,29.94,10.0,NNW,3.5,-,N/A,,Clear,330,2013-11-03 02:35:00
10:55 PM,53.6,33.8,47,29.94,10.0,Calm,Calm,-,N/A,,Clear,0,2013-11-03 02:55:00
11:15 PM,51.8,33.8,50,29.96,10.0,NNW,5.8,-,N/A,,Clear,330,2013-11-03 03:15:00
11:35 PM,51.8,33.8,50,29.96,10.0,NW,3.5,-,N/A,,Clear,320,2013-11-03 03:35:00
11:55 PM,50.0,33.8,54,29.97,10.0,Calm,Calm,-,N/A,,Clear,0,2013-11-03 03:55:00